TimeCST,TemperatureF,Dew PointF,Humidity,Sea Level PressureIn,VisibilityMPH,Wind Direction,Wind SpeedMPH,Gust SpeedMPH,PrecipitationIn,Events,Conditions,WindDirDegrees,DateUTC
12:53 AM,24.1,14.0,65,30.25,10.0,Calm,Calm,-,N/A,,Clear,0,2012-12-22 06:53:00
1:53 AM,21.9,14.0,72,30.24,10.0,Calm,Calm,-,N/A,,Clear,0,2012-12-22 07:53:00
2:53 AM,23.0,12.9,65,30.23,10.0,Calm,Calm,-,N/A,,Clear,0,2012-12-22 08:53:00
3:53 AM,21.0,12.9,71,30.22,10.0,Calm,Calm,-,N/A,,Clear,0,2012-12-22 09:53:00
4:53 AM,23.0,12.9,65,30.21,10.0,Calm,Calm,-,N/A,,Clear,0,2012-12-22 10:53:00
6:53 AM,26.1,14.0,60,30.21,10.0,Calm,Calm,-,N/A,,Clear,0,2012-12-22 12:53:00
7:53 AM,28.0,14.0,56,30.21,10.0,Calm,Calm,-,N/A,,Clear,0,2012-12-22 13:53:00
8:53 AM,36.0,15.1,43,30.21,10.0,SSW,6.9,-,N/A,,Clear,200,2012-12-22 14:53:00
9:53 AM,48.0,12.0,24,30.19,10.0,SSW,12.7,21.9,N/A,,Clear,200,2012-12-22 15:53:00
10:53 AM,53.1,10.0,18,30.18,10.0,SSW,12.7,21.9,N/A,,Clear,210,2012-12-22 16:53:00
11:53 AM,55.0,10.0,17,30.14,10.0,SSW,16.1,23.0,N/A,,Clear,200,2012-12-22 17:53:00
12:53 PM,57.9,10.0,15,30.10,10.0,SSW,16.1,23.0,N/A,,Clear,200,2012-12-22 18:53:00
1:53 PM,59.0,10.9,15,30.06,10.0,SSW,13.8,24.2,N/A,,Clear,200,2012-12-22 19:53:00
2:53 PM,60.1,12.9,16,30.04,10.0,South,13.8,24.2,N/A,,Clear,190,2012-12-22 20:53:00
3:53 PM,60.1,17.1,19,30.03,10.0,South,9.2,-,N/A,,Clear,190,2012-12-22 21:53:00
4:53 PM,59.0,19.9,22,30.01,10.0,South,8.1,-,N/A,,Clear,180,2012-12-22 22:53:00
6:53 PM,54.0,28.9,38,29.98,10.0,South,9.2,-,N/A,,Clear,180,2012-12-23 00:53:00
7:53 PM,50.0,30.9,48,30.01,10.0,South,4.6,-,N/A,,Clear,190,2012-12-23 01:53:00
8:53 PM,48.0,32.0,54,29.99,10.0,South,8.1,-,N/A,,Clear,170,2012-12-23 02:53:00
9:53 PM,48.0,33.1,56,29.98,10.0,South,6.9,-,N/A,,Clear,180,2012-12-23 03:53:00
10:53 PM,50.0,36.0,59,29.96,10.0,SSE,8.1,-,N/A,,Clear,160,2012-12-23 04:53:00
11:53 PM,48.9,36.0,61,29.94,10.0,SSE,4.6,-,N/A,,Clear,160,2012-12-23 05:53:00